STARLINK-34554, 64687

Orbit data source: Space-Track

STARLINK-34554, 64687 is a payload satellite owned by SpaceX/Seattle (US) in LEO that was launched on Sat, 28 Jun 2025 UTC via an FALCON 9 launch vehicle from the Air Force Eastern Test Range (AFETR). Payload-class satellites include a variety of spacecraft equipped with specific instruments for various scientific and technological missions. These include communications satellites like Starlink; space stations such as the ISS; scientific satellites like the Hubble; Earth observation satellites from companies like Planet Labs, Umbra, and HawkEye 360; GPS; miniature CubeSats for education and research; and military/defense satellites.

Loading next visibility...
Identifier
64687, 2025-139Z
Orbit
LEO
Country
Flag of USUS
Related business
Manufacturer
SpaceX/Seattle
Mission
Operational Commercial Communications
Bus & Motor
STARLINK V2MO, Unknown motor
Mass
575 kg wet, ~530 kg dry
Launch date (UTC)
2025-06-28 (1 year ago)
Launch vehicle
FALCON 9
Launch site
Air Force Eastern Test Range (AFETR)
Object type
Payload
Rocket body
Debris
Shape & HBR
Box + 2 Pan, 17.7 m
Radar Cross Section
36.964 m², Large (>1 m²)

Expand to show TLE details & history
Last TLE update: 1 day ago

TLE from 1 day ago
0 STARLINK-34554
1 64687U 25139Z   26170.86963293  .00013892  00000-0  42131-3 0  9990
2 64687  53.1609  10.6275 0001142  99.1105 261.0027 15.34415354 55958
Epoch: 2026-06-19T20:52Z
TLE epoch observation values (Epoch: 2026-06-19T20:52:16.285Z)
Latitude
0.00001°
Longitude
149.46724°
Altitude
463.681 km
Speed
7.636 km/s
True Right ascension
00h 42m 30s
True Declination
0° 00' 00"
Sunlit
Object was in daylight at epoch
Visualization orbit readout
Latitude
Unknown
Longitude
Unknown
Altitude
Unknown
Speed
Unknown
Apparent Right ascension
Unknown
Apparent Declination
Unknown
Sunlit
N/A
Visualization observer readout
Local Sidereal Time
08:43:10
Azimuth
Unknown
Elevation
Unknown
Doppler factor
Unknown
Orbital elements
Apogee altitude
463.696 km
Perigee altitude
462.133 km
Semi-major axis
6,841.051 km
Eccentricity
0.00011
Inclination
53.1609°
RAAN
10.6275°
Arg. of periapsis
99.1105°
True anomaly
260.98977°
Mean anomaly
261.0027°
Eccentric anomaly
260.99624°
Mean motion
3.83583 °/min
Orbital period
93.85 mins
BSTAR
0.00042131
Loading maneuver chart data...
Computing Atmospheric mass density...
Loading historical data...
Loading historical data...
Loading historical data...
Loading historical data...
Loading historical data...
Loading historical data...
Loading historical data...

Documentation

Showing up to 5 results
|